| time (UTC) | temp C | wind direction | speed KPH | gust KPH | rain 1hr cm | rain 24hr cm | rain mn cm | humidity % | barometer mb |
| 20260902203208 | 14 | 200 | 8.0 | 16.1 | 0.00 | 0.33 | 0.33 | 91 | 1012.5 |
| 20260902202708 | 14 | 223 | 8.0 | 22.5 | 0.00 | 0.33 | 0.33 | 91 | 1012.5 |
| 20260902202210 | 14 | 180 | 6.4 | 12.9 | 0.00 | 0.33 | 0.33 | 91 | 1012.4 |
| 20260902201707 | 14 | 212 | 4.8 | 11.3 | 0.00 | 0.33 | 0.33 | 91 | 1012.4 |
| 20260902200708 | 14 | 189 | 11.3 | 16.1 | 0.00 | 0.33 | 0.33 | 91 | 1012.4 |
| 20260902194710 | 14 | 211 | 8.0 | 12.9 | 0.00 | 0.33 | 0.33 | 91 | 1012.5 |
| 20260902194207 | 14 | 184 | 8.0 | 20.9 | 0.00 | 0.33 | 0.33 | 91 | 1012.5 |
| 20260902192707 | 14 | 193 | 9.7 | 12.9 | 0.00 | 0.33 | 0.33 | 91 | 1012.5 |
| 20260902192207 | 14 | 206 | 6.4 | 11.3 | 0.00 | 0.33 | 0.33 | 91 | 1012.5 |
| 20260902191208 | 14 | 222 | 8.0 | 16.1 | 0.00 | 0.41 | 0.33 | 91 | 1012.6 |
| 20260902185709 | 14 | 229 | 6.4 | 12.9 | 0.00 | 0.41 | 0.33 | 91 | 1012.6 |
| 20260902184707 | 14 | 202 | 9.7 | 11.3 | 0.00 | 0.41 | 0.33 | 90 | 1012.5 |
| 20260902183707 | 14 | 199 | 8.0 | 12.9 | 0.00 | 0.41 | 0.33 | 90 | 1012.4 |
| 20260902182207 | 15 | 205 | 8.0 | 20.9 | 0.00 | 0.41 | 0.33 | 90 | 1012.2 |
| 20260902181207 | 15 | 230 | 4.8 | 11.3 | 0.00 | 0.41 | 0.33 | 90 | 1012.2 |
| 20260902180707 | 15 | 219 | 9.7 | 16.1 | 0.00 | 0.41 | 0.33 | 91 | 1012.2 |
| 20260902175708 | 15 | 223 | 8.0 | 20.9 | 0.00 | 0.41 | 0.33 | 91 | 1012.2 |
| 20260902175207 | 15 | 179 | 8.0 | 24.1 | 0.00 | 0.41 | 0.33 | 91 | 1012.2 |
| 20260902174207 | 15 | 209 | 9.7 | 24.1 | 0.00 | 0.41 | 0.33 | 91 | 1012.1 |
| 20260902172707 | 15 | 200 | 9.7 | 16.1 | 0.00 | 0.41 | 0.33 | 90 | 1012.1 |
| 20260902171707 | 16 | 203 | 14.5 | 24.1 | 0.03 | 0.41 | 0.33 | 90 | 1012.1 |
| 20260902170207 | 16 | 220 | 11.3 | 24.1 | 0.05 | 0.41 | 0.33 | 90 | 1012.2 |
| 20260902165207 | 16 | 208 | 12.9 | 24.1 | 0.08 | 0.41 | 0.33 | 90 | 1012.3 |
| 20260902163707 | 15 | 195 | 12.9 | 24.1 | 0.08 | 0.41 | 0.33 | 90 | 1012.4 |
| 20260902163209 | 15 | 203 | 9.7 | 16.1 | 0.08 | 0.41 | 0.33 | 90 | 1012.4 |
| 20260902162707 | 15 | 217 | 8.0 | 16.1 | 0.08 | 0.41 | 0.33 | 90 | 1012.4 |
| 20260902161708 | 15 | 230 | 9.7 | 12.9 | 0.05 | 0.38 | 0.30 | 89 | 1012.4 |
| 20260902161207 | 15 | 201 | 9.7 | 16.1 | 0.05 | 0.38 | 0.30 | 89 | 1012.5 |
| 20260902160707 | 15 | 194 | 11.3 | 24.1 | 0.03 | 0.36 | 0.28 | 89 | 1012.5 |
| 20260902160209 | 15 | 210 | 8.0 | 12.9 | 0.05 | 0.36 | 0.28 | 89 | 1012.6 |
| 20260902155709 | 15 | 241 | 8.0 | 14.5 | 0.03 | 0.33 | 0.25 | 89 | 1012.6 |
| 20260902154709 | 15 | 230 | 4.8 | 11.3 | 0.03 | 0.33 | 0.25 | 89 | 1012.6 |
| 20260902153207 | 16 | 178 | 11.3 | 12.9 | 0.05 | 0.33 | 0.25 | 90 | 1012.6 |
| 20260902152207 | 15 | 199 | 9.7 | 16.1 | 0.08 | 0.33 | 0.25 | 89 | 1012.6 |
| 20260902150709 | 15 | 202 | 9.7 | 24.1 | 0.15 | 0.33 | 0.25 | 89 | 1012.7 |
| 20260902145208 | 15 | 196 | 11.3 | 24.1 | 0.18 | 0.30 | 0.23 | 88 | 1012.8 |
| 20260902144708 | 15 | 212 | 9.7 | 12.9 | 0.18 | 0.30 | 0.23 | 88 | 1012.8 |
| 20260902144207 | 15 | 193 | 8.0 | 20.9 | 0.18 | 0.30 | 0.23 | 87 | 1012.7 |
| 20260902142709 | 15 | 210 | 14.5 | 22.5 | 0.15 | 0.28 | 0.18 | 85 | 1012.8 |
| 20260902142218 | 16 | 211 | 12.9 | 20.9 | 0.13 | 0.25 | 0.15 | 84 | 1012.5 |
| 20260902141715 | 16 | 249 | 3.2 | 11.3 | 0.10 | 0.23 | 0.13 | 83 | 1012.5 |
| 20260902141211 | 16 | 228 | 8.0 | 22.5 | 0.08 | 0.18 | 0.10 | 82 | 1012.5 |
| 20260902140710 | 17 | 234 | 14.5 | 25.7 | 0.05 | 0.15 | 0.08 | 80 | 1012.5 |
| 20260902135208 | 18 | 242 | 17.7 | 33.8 | 0.00 | 0.10 | 0.03 | 78 | 1012.5 |
| 20260902133208 | 19 | 221 | 16.1 | 32.2 | 0.00 | 0.10 | 0.03 | 75 | 1012.5 |
| 20260902132708 | 19 | 235 | 14.5 | 27.4 | 0.00 | 0.10 | 0.03 | 74 | 1012.5 |
| 20260902131711 | 20 | 223 | 14.5 | 40.2 | 0.00 | 0.10 | 0.03 | 73 | 1012.5 |
| 20260902131208 | 20 | 195 | 16.1 | 32.2 | 0.00 | 0.10 | 0.03 | 73 | 1012.5 |
| 20260902130709 | 20 | 229 | 17.7 | 33.8 | 0.00 | 0.10 | 0.03 | 72 | 1012.5 |
| 20260902125210 | 19 | 241 | 19.3 | 32.2 | 0.00 | 0.10 | 0.03 | 73 | 1012.5 |
| 20260902124208 | 19 | 224 | 16.1 | 33.8 | 0.00 | 0.10 | 0.03 | 74 | 1012.5 |
| 20260902123209 | 19 | 199 | 22.5 | 38.6 | 0.00 | 0.10 | 0.03 | 74 | 1012.5 |
| 20260902122708 | 19 | 231 | 16.1 | 27.4 | 0.00 | 0.10 | 0.03 | 75 | 1012.5 |
| 20260902121208 | 19 | 234 | 19.3 | 27.4 | 0.00 | 0.10 | 0.03 | 76 | 1012.7 |
| 20260902120207 | 19 | 206 | 19.3 | 32.2 | 0.00 | 0.10 | 0.03 | 77 | 1012.8 |
| 20260902115708 | 19 | 197 | 19.3 | 37.0 | 0.00 | 0.10 | 0.03 | 76 | 1012.8 |
| 20260902115208 | 19 | 230 | 14.5 | 29.0 | 0.00 | 0.10 | 0.03 | 75 | 1012.7 |
| 20260902114208 | 19 | 218 | 16.1 | 29.0 | 0.00 | 0.10 | 0.03 | 75 | 1012.8 |
| 20260902113208 | 19 | 223 | 22.5 | 37.0 | 0.00 | 0.10 | 0.03 | 74 | 1012.9 |
| 20260902110708 | 20 | 229 | 22.5 | 33.8 | 0.00 | 0.10 | 0.03 | 72 | 1012.9 |
| 20260902110207 | 20 | 254 | 16.1 | 35.4 | 0.00 | 0.10 | 0.03 | 71 | 1012.9 |
| 20260902104207 | 20 | 212 | 16.1 | 37.0 | 0.00 | 0.10 | 0.03 | 72 | 1013.0 |
| 20260902102209 | 20 | 274 | 8.0 | 33.8 | 0.00 | 0.10 | 0.03 | 75 | 1012.9 |
| 20260902101707 | 20 | 226 | 17.7 | 35.4 | 0.00 | 0.10 | 0.03 | 74 | 1012.9 |
| 20260902095707 | 19 | 233 | 14.5 | 29.0 | 0.00 | 0.10 | 0.03 | 76 | 1012.8 |
| 20260902094709 | 19 | 249 | 22.5 | 35.4 | 0.00 | 0.10 | 0.03 | 76 | 1012.8 |
| 20260902094206 | 19 | 245 | 17.7 | 27.4 | 0.00 | 0.10 | 0.03 | 74 | 1012.9 |
| 20260902093706 | 19 | 249 | 22.5 | 32.2 | 0.00 | 0.10 | 0.03 | 75 | 1012.9 |
| 20260902093206 | 19 | 249 | 16.1 | 38.6 | 0.00 | 0.10 | 0.03 | 77 | 1012.9 |
| 20260902092706 | 19 | 215 | 27.4 | 37.0 | 0.00 | 0.10 | 0.03 | 77 | 1012.8 |
| 20260902092206 | 18 | 254 | 14.5 | 29.0 | 0.00 | 0.10 | 0.03 | 78 | 1012.9 |
| 20260902091206 | 18 | 231 | 14.5 | 22.5 | 0.00 | 0.10 | 0.03 | 78 | 1012.8 |
| 20260902085707 | 18 | 214 | 8.0 | 24.1 | 0.00 | 0.10 | 0.03 | 81 | 1013.0 |
| 20260902085207 | 18 | 215 | 16.1 | 32.2 | 0.00 | 0.10 | 0.03 | 80 | 1013.0 |
| 20260902083206 | 18 | 234 | 20.9 | 29.0 | 0.00 | 0.13 | 0.03 | 83 | 1013.0 |
| 20260902081207 | 17 | 234 | 16.1 | 32.2 | 0.00 | 0.13 | 0.03 | 85 | 1013.0 |
| 20260902080208 | 17 | 210 | 16.1 | 27.4 | 0.00 | 0.13 | 0.03 | 85 | 1013.0 |
| 20260902075207 | 17 | 223 | 19.3 | 33.8 | 0.00 | 0.13 | 0.03 | 86 | 1012.9 |
| 20260902074706 | 17 | 206 | 22.5 | 32.2 | 0.00 | 0.13 | 0.03 | 87 | 1012.9 |
| 20260902074207 | 17 | 201 | 16.1 | 32.2 | 0.00 | 0.13 | 0.03 | 88 | 1012.9 |
| 20260902073707 | 17 | 189 | 17.7 | 33.8 | 0.00 | 0.13 | 0.03 | 88 | 1012.9 |
| 20260902073207 | 16 | 250 | 11.3 | 20.9 | 0.00 | 0.13 | 0.03 | 89 | 1012.9 |
| 20260902072706 | 16 | 191 | 16.1 | 32.2 | 0.00 | 0.13 | 0.03 | 89 | 1012.9 |
| 20260902071707 | 16 | 195 | 12.9 | 24.1 | 0.00 | 0.13 | 0.03 | 90 | 1012.7 |
| 20260902065706 | 15 | 210 | 14.5 | 29.0 | 0.00 | 0.13 | 0.03 | 91 | 1012.7 |
| 20260902065207 | 15 | 210 | 14.5 | 22.5 | 0.00 | 0.13 | 0.03 | 91 | 1012.7 |
| 20260902064706 | 15 | 217 | 11.3 | 22.5 | 0.00 | 0.13 | 0.03 | 91 | 1012.7 |
| 20260902061707 | 15 | 223 | 14.5 | 25.7 | 0.00 | 0.15 | 0.03 | 92 | 1012.7 |
| 20260902060206 | 14 | 199 | 14.5 | 25.7 | 0.00 | 0.15 | 0.03 | 92 | 1012.7 |
| 20260902055207 | 14 | 204 | 9.7 | 22.5 | 0.00 | 0.15 | 0.03 | 92 | 1012.7 |
| 20260902054706 | 14 | 201 | 16.1 | 24.1 | 0.00 | 0.15 | 0.03 | 92 | 1012.7 |
| 20260902053206 | 14 | 183 | 11.3 | 24.1 | 0.00 | 0.15 | 0.03 | 92 | 1012.7 |
| 20260902052705 | 14 | 190 | 9.7 | 22.5 | 0.00 | 0.15 | 0.03 | 92 | 1012.7 |
| 20260902052206 | 14 | 197 | 9.7 | 20.9 | 0.00 | 0.15 | 0.03 | 92 | 1012.7 |
| 20260902051706 | 14 | 194 | 9.7 | 20.9 | 0.00 | 0.15 | 0.03 | 92 | 1012.7 |
| 20260902051205 | 14 | 182 | 9.7 | 22.5 | 0.00 | 0.15 | 0.03 | 92 | 1012.7 |
| 20260902050707 | 13 | 193 | 11.3 | 14.5 | 0.00 | 0.15 | 0.03 | 92 | 1012.6 |
| 20260902045205 | 13 | 229 | 8.0 | 20.9 | 0.00 | 0.15 | 0.03 | 92 | 1012.7 |
| 20260902043707 | 13 | 186 | 8.0 | 12.9 | 0.00 | 0.15 | 0.03 | 91 | 1012.7 |
| 20260902041705 | 13 | 168 | 9.7 | 20.9 | 0.00 | 0.15 | 0.03 | 91 | 1012.8 |
| 20260902040707 | 13 | 185 | 9.7 | 12.9 | 0.00 | 0.15 | 0.03 | 91 | 1012.7 |
| 20260902040206 | 13 | 159 | 9.7 | 16.1 | 0.00 | 0.15 | 0.03 | 91 | 1012.8 |
| 20260902035705 | 13 | 184 | 9.7 | 20.9 | 0.00 | 0.15 | 0.03 | 91 | 1012.8 |
| 20260902034707 | 12 | 172 | 9.7 | 16.1 | 0.00 | 0.15 | 0.03 | 91 | 1012.8 |
| 20260902033706 | 12 | 168 | 8.0 | 12.9 | 0.00 | 0.15 | 0.03 | 91 | 1012.8 |
| 20260902032208 | 12 | 181 | 8.0 | 11.3 | 0.00 | 0.15 | 0.03 | 91 | 1013.0 |
| 20260902031708 | 12 | 201 | 8.0 | 11.3 | 0.03 | 0.15 | 0.03 | 91 | 1013.0 |
| 20260902031206 | 12 | 186 | 4.8 | 9.7 | 0.03 | 0.15 | 0.03 | 91 | 1012.9 |
| 20260902030706 | 12 | 190 | 9.7 | 12.9 | 0.03 | 0.15 | 0.03 | 91 | 1012.9 |
| 20260902024706 | 12 | 176 | 4.8 | 9.7 | 0.03 | 0.15 | 0.03 | 90 | 1012.9 |
| 20260902024208 | 12 | 176 | 8.0 | 9.7 | 0.03 | 0.15 | 0.03 | 90 | 1013.0 |
| 20260902023208 | 12 | 166 | 4.8 | 9.7 | 0.03 | 0.15 | 0.03 | 90 | 1012.9 |
| 20260902022706 | 12 | 156 | 3.2 | 8.0 | 0.03 | 0.15 | 0.03 | 90 | 1012.9 |
| 20260902022208 | 12 | 171 | 4.8 | 9.7 | 0.03 | 0.15 | 0.03 | 90 | 1012.9 |
| 20260902020706 | 12 | 174 | 6.4 | 11.3 | 0.00 | 0.13 | 0.00 | 90 | 1012.9 |
| 20260902020207 | 12 | 198 | 4.8 | 11.3 | 0.00 | 0.13 | 0.00 | 90 | 1012.9 |
| 20260902015707 | 12 | 174 | 4.8 | 9.7 | 0.00 | 0.13 | 0.00 | 90 | 1012.9 |
| 20260902015205 | 12 | 174 | 6.4 | 8.0 | 0.00 | 0.13 | 0.00 | 90 | 1012.8 |
| 20260902014705 | 12 | 175 | 3.2 | 8.0 | 0.00 | 0.13 | 0.00 | 90 | 1012.9 |
| 20260902014206 | 12 | 182 | 4.8 | 11.3 | 0.00 | 0.13 | 0.00 | 90 | 1012.9 |
| 20260902013206 | 12 | 201 | 6.4 | 11.3 | 0.00 | 0.13 | 0.00 | 90 | 1012.8 |
| 20260902012206 | 12 | 183 | 6.4 | 9.7 | 0.00 | 0.13 | 0.00 | 89 | 1012.8 |
| 20260902011707 | 12 | 195 | 3.2 | 8.0 | 0.00 | 0.13 | 0.00 | 89 | 1012.8 |
| 20260902011206 | 12 | 202 | 3.2 | 9.7 | 0.00 | 0.13 | 0.00 | 89 | 1012.8 |
| 20260902010706 | 12 | 219 | 3.2 | 9.7 | 0.00 | 0.13 | 0.00 | 89 | 1012.8 |
| 20260902005205 | 12 | 189 | 3.2 | 4.8 | 0.00 | 0.13 | 0.00 | 89 | 1013.0 |
| 20260902004705 | 12 | 211 | 4.8 | 8.0 | 0.00 | 0.13 | 0.00 | 89 | 1013.0 |
| 20260902002705 | 12 | 247 | 8.0 | 11.3 | 0.00 | 0.13 | 0.00 | 89 | 1013.0 |
| 20260902002205 | 12 | 237 | 8.0 | 9.7 | 0.00 | 0.13 | 0.00 | 88 | 1013.0 |
| 20260902001706 | 12 | 225 | 6.4 | 9.7 | 0.00 | 0.13 | 0.00 | 88 | 1013.1 |
| 20260901235705 | 13 | 249 | 3.2 | 9.7 | 0.00 | 0.13 | 0.00 | 88 | 1013.1 |
| 20260901233705 | 13 | 233 | 4.8 | 9.7 | 0.00 | 0.13 | 0.00 | 88 | 1013.2 |
| 20260901233207 | 13 | 266 | 3.2 | 8.0 | 0.00 | 0.13 | 0.00 | 87 | 1013.3 |
| 20260901231706 | 13 | 267 | 8.0 | 22.5 | 0.00 | 0.13 | 0.00 | 88 | 1013.3 |
| 20260901225706 | 14 | 269 | 9.7 | 20.9 | 0.00 | 0.13 | 0.00 | 88 | 1013.1 |
| 20260901224206 | 14 | 265 | 9.7 | 27.4 | 0.00 | 0.15 | 0.00 | 89 | 1013.0 |
| 20260901223705 | 14 | 267 | 14.5 | 22.5 | 0.00 | 0.15 | 0.00 | 89 | 1013.0 |
| 20260901222705 | 14 | 277 | 11.3 | 22.5 | 0.00 | 0.15 | 0.00 | 89 | 1012.9 |
| 20260901220706 | 14 | 236 | 4.8 | 11.3 | 0.00 | 0.15 | 0.00 | 89 | 1012.8 |
| 20260901215705 | 14 | 238 | 3.2 | 8.0 | 0.00 | 0.15 | 0.15 | 89 | 1012.8 |
| 20260901215206 | 14 | 252 | 1.6 | 9.7 | 0.00 | 0.15 | 0.15 | 89 | 1012.8 |
| 20260901211705 | 15 | 270 | 3.2 | 9.7 | 0.00 | 0.15 | 0.15 | 89 | 1012.7 |
| 20260901211205 | 15 | 244 | 6.4 | 8.0 | 0.00 | 0.15 | 0.15 | 89 | 1012.6 |